Location: *
(46.1833°N, 22.7667°E)
Time: 10:48:16
(UTC+00:00)

CZ-2C R/B - Pass Details

Date: 17 September 2019
Orbit: 705 x 907 km, 98.1° (Epoch: 18 October)

Event Time Altitude Azimuth Distance (km) Brightness Sun altitude
Exits shadow 18:39:01 41° 143° (SE) 1,137 3.4 -21.0°
Maximum altitude 18:40:48 70° 73° (ENE) 863 3.0 -21.3°
Drops below altitude 10° 18:46:14 10° 351° (N) 2,473 6.1 -22.1°
Sets 18:48:41 0° 349° (N) 3,442 7.0 -22.5°
